When you browse on this site, cookies collect data to enhance your experience and personalize the content and advertising you see.
Visit our Privacy Policy to learn more. By continuing to use the site, you agree to this use of cookies and data.
  • In Lithuania
  • List of Countries
  • For 7 days
  • Water Temperature
  • Satellite Maps
  • Weather Map
  • Weather Widgets
  • user-avatar
    Login

    Hourly Weather Ivanovka-Seleznevka

    Today, 16 June, Sunday

    Time Temperature Precipitation Wind Pressure Humidity
    00:00 +16°C° 0 mm 2 mps 745 mmHg 86%
    01:00 +15°C° 0 mm 1 mps 745 mmHg 88%
    02:00 +14°C° 0 mm 1 mps 745 mmHg 90%
    03:00 +13°C° 0 mm 1 mps 745 mmHg 92%
    04:00 +14°C° 0 mm 1 mps 745 mmHg 91%
    05:00 +14°C° 0 mm 1 mps 745 mmHg 91%
    06:00 +15°C° 0 mm 1 mps 745 mmHg 90%
    07:00 +16°C° 0 mm 1 mps 745 mmHg 86%
    08:00 +18°C° 0 mm 1 mps 745 mmHg 81%
    09:00 +18°C° 0 mm 0 mps 745 mmHg 77%
    10:00 +20°C° 0.4 mm 1 mps 745 mmHg 77%
    11:00 +20°C° 0.4 mm 2 mps 745 mmHg 77%
    12:00 +20°C° 0.4 mm 2 mps 745 mmHg 76%
    13:00 +21°C° 0.3 mm 3 mps 745 mmHg 75%
    14:00 +21°C° 0.3 mm 3 mps 745 mmHg 73%
    15:00 +22°C° 0.3 mm 3 mps 745 mmHg 71%
    16:00 +22°C° 0.1 mm 3 mps 745 mmHg 72%
    17:00 +21°C° 0.1 mm 3 mps 745 mmHg 73%
    18:00 +21°C° 0.1 mm 3 mps 744 mmHg 74%
    19:00 +20°C° 0 mm 3 mps 745 mmHg 80%
    20:00 +18°C° 0 mm 2 mps 745 mmHg 85%
    21:00 +17°C° 0 mm 2 mps 745 mmHg 90%
    22:00 +16°C° 0 mm 2 mps 745 mmHg 90%
    23:00 +15°C° 0 mm 2 mps 745 mmHg 91%

    Tomorrow, 17 June, Monday

    Time Temperature Precipitation Wind Pressure Humidity
    00:00 +15°C° 0 mm 2 mps 745 mmHg 91%
    01:00 +14°C° 0 mm 1 mps 746 mmHg 91%
    02:00 +14°C° 0 mm 1 mps 746 mmHg 90%
    03:00 +14°C° 0 mm 1 mps 746 mmHg 90%
    04:00 +14°C° 0 mm 1 mps 746 mmHg 88%
    05:00 +15°C° 0 mm 1 mps 746 mmHg 86%
    06:00 +16°C° 0 mm 1 mps 746 mmHg 84%
    07:00 +18°C° 0 mm 1 mps 746 mmHg 78%
    08:00 +20°C° 0 mm 1 mps 746 mmHg 73%
    09:00 +21°C° 0 mm 1 mps 746 mmHg 67%
    10:00 +22°C° 0 mm 1 mps 746 mmHg 63%
    11:00 +23°C° 0 mm 1 mps 746 mmHg 60%
    12:00 +24°C° 0 mm 1 mps 746 mmHg 56%
    13:00 +24°C° 0 mm 2 mps 746 mmHg 59%
    14:00 +24°C° 0 mm 2 mps 746 mmHg 61%
    15:00 +24°C° 0 mm 2 mps 746 mmHg 64%
    16:00 +24°C° 0.1 mm 2 mps 746 mmHg 67%
    17:00 +24°C° 0.1 mm 2 mps 745 mmHg 69%
    18:00 +24°C° 0.1 mm 1 mps 745 mmHg 72%
    19:00 +23°C° 0 mm 1 mps 745 mmHg 75%
    20:00 +22°C° 0 mm 1 mps 745 mmHg 78%
    21:00 +20°C° 0 mm 1 mps 745 mmHg 80%
    22:00 +20°C° 0 mm 1 mps 745 mmHg 80%
    23:00 +20°C° 0 mm 1 mps 745 mmHg 81%

    Day after tomorrow, 18 June, Tuesday

    Time Temperature Precipitation Wind Pressure Humidity
    00:00 +19°C° 0 mm 2 mps 745 mmHg 81%
    01:00 +18°C° 0 mm 2 mps 745 mmHg 84%
    02:00 +17°C° 0 mm 2 mps 745 mmHg 87%
    03:00 +17°C° 0 mm 2 mps 745 mmHg 90%
    04:00 +17°C° 0 mm 2 mps 745 mmHg 89%
    05:00 +18°C° 0 mm 2 mps 745 mmHg 89%
    06:00 +18°C° 0 mm 3 mps 745 mmHg 88%
    07:00 +20°C° 0.1 mm 3 mps 745 mmHg 84%
    08:00 +21°C° 0.1 mm 3 mps 745 mmHg 81%
    09:00 +22°C° 0.1 mm 3 mps 745 mmHg 77%
    10:00 +22°C° 0.6 mm 3 mps 745 mmHg 78%
    11:00 +22°C° 0.6 mm 3 mps 745 mmHg 80%
    12:00 +23°C° 0.6 mm 2 mps 745 mmHg 81%
    13:00 +22°C° 0.4 mm 3 mps 744 mmHg 84%
    14:00 +21°C° 0.4 mm 3 mps 744 mmHg 86%
    15:00 +21°C° 0.4 mm 4 mps 744 mmHg 89%
    16:00 +21°C° 0 mm 4 mps 744 mmHg 86%
    17:00 +22°C° 0 mm 4 mps 744 mmHg 83%
    18:00 +22°C° 0 mm 4 mps 744 mmHg 80%
    19:00 +21°C° 0 mm 3 mps 744 mmHg 82%
    20:00 +20°C° 0 mm 2 mps 745 mmHg 85%
    21:00 +20°C° 0 mm 1 mps 745 mmHg 88%
    22:00 +18°C° 0 mm 2 mps 745 mmHg 86%
    23:00 +17°C° 0 mm 2 mps 745 mmHg 85%

    19 June, Wednesday

    Time Temperature Precipitation Wind Pressure Humidity
    00:00 +17°C° 0 mm 2 mps 746 mmHg 84%
    01:00 +16°C° 0 mm 2 mps 746 mmHg 84%
    02:00 +16°C° 0 mm 2 mps 746 mmHg 84%
    03:00 +16°C° 0 mm 2 mps 746 mmHg 84%
    04:00 +16°C° 0 mm 2 mps 746 mmHg 85%
    05:00 +17°C° 0 mm 3 mps 747 mmHg 86%
    06:00 +17°C° 0 mm 3 mps 747 mmHg 86%
    07:00 +18°C° 0 mm 3 mps 747 mmHg 81%
    08:00 +20°C° 0 mm 3 mps 747 mmHg 76%
    09:00 +21°C° 0 mm 3 mps 747 mmHg 71%
    10:00 +22°C° 0 mm 3 mps 747 mmHg 67%
    11:00 +24°C° 0 mm 3 mps 748 mmHg 63%
    12:00 +25°C° 0 mm 3 mps 748 mmHg 59%
    13:00 +26°C° 0 mm 3 mps 748 mmHg 59%
    14:00 +26°C° 0 mm 3 mps 747 mmHg 59%
    15:00 +26°C° 0 mm 3 mps 747 mmHg 59%
    16:00 +26°C° 0 mm 3 mps 747 mmHg 63%
    17:00 +26°C° 0 mm 3 mps 747 mmHg 67%
    18:00 +25°C° 0 mm 2 mps 747 mmHg 71%
    19:00 +24°C° 0 mm 2 mps 747 mmHg 73%
    20:00 +21°C° 0 mm 2 mps 747 mmHg 75%
    21:00 +20°C° 0 mm 1 mps 747 mmHg 77%
    22:00 +19°C° 0 mm 1 mps 748 mmHg 76%
    23:00 +19°C° 0 mm 1 mps 748 mmHg 75%

    20 June, Thursday

    Time Temperature Precipitation Wind Pressure Humidity
    00:00 +17°C° 0 mm 2 mps 748 mmHg 74%
    01:00 +17°C° 0 mm 2 mps 748 mmHg 77%
    02:00 +16°C° 0 mm 2 mps 748 mmHg 79%
    03:00 +16°C° 0 mm 2 mps 748 mmHg 82%
    04:00 +18°C° 0 mm 1 mps 749 mmHg 83%
    05:00 +18°C° 0 mm 1 mps 749 mmHg 83%
    06:00 +19°C° 0 mm 1 mps 749 mmHg 83%
    07:00 +21°C° 0 mm 1 mps 749 mmHg 78%
    08:00 +22°C° 0 mm 1 mps 749 mmHg 73%
    09:00 +24°C° 0 mm 1 mps 749 mmHg 67%
    10:00 +25°C° 0 mm 1 mps 749 mmHg 63%
    11:00 +26°C° 0 mm 1 mps 749 mmHg 58%
    12:00 +27°C° 0 mm 1 mps 749 mmHg 54%
    13:00 +27°C° 0 mm 1 mps 749 mmHg 51%
    14:00 +26°C° 0 mm 0 mps 749 mmHg 48%
    15:00 +26°C° 0 mm 0 mps 749 mmHg 46%
    16:00 +26°C° 0 mm 0 mps 749 mmHg 50%
    17:00 +26°C° 0 mm 0 mps 748 mmHg 54%
    18:00 +28°C° 0 mm 1 mps 748 mmHg 58%
    19:00 +23°C° 0 mm 0 mps 748 mmHg 61%
    20:00 +21°C° 0 mm 0 mps 748 mmHg 63%
    21:00 +19°C° 0 mm 0 mps 748 mmHg 66%
    22:00 +21°C° 0 mm 1 mps 748 mmHg 68%
    23:00 +20°C° 0 mm 1 mps 748 mmHg 69%

    21 June, Friday

    Time Temperature Precipitation Wind Pressure Humidity
    00:00 +19°C° 0 mm 1 mps 748 mmHg 70%
    01:00 +19°C° 0 mm 1 mps 749 mmHg 71%
    02:00 +19°C° 0 mm 1 mps 749 mmHg 73%
    03:00 +18°C° 0 mm 1 mps 749 mmHg 74%
    04:00 +19°C° 0 mm 1 mps 749 mmHg 75%
    05:00 +20°C° 0 mm 1 mps 749 mmHg 77%
    06:00 +20°C° 0 mm 1 mps 749 mmHg 78%
    07:00 +22°C° 0 mm 1 mps 749 mmHg 74%
    08:00 +23°C° 0 mm 1 mps 749 mmHg 70%
    09:00 +25°C° 0 mm 1 mps 749 mmHg 66%
    10:00 +26°C° 0 mm 1 mps 749 mmHg 62%
    11:00 +26°C° 0 mm 1 mps 749 mmHg 58%
    12:00 +27°C° 0 mm 2 mps 749 mmHg 54%
    13:00 +27°C° 0 mm 2 mps 749 mmHg 55%
    14:00 +27°C° 0 mm 2 mps 749 mmHg 57%
    15:00 +28°C° 0 mm 2 mps 749 mmHg 58%
    16:00 +27°C° 0 mm 2 mps 749 mmHg 61%
    17:00 +27°C° 0 mm 2 mps 748 mmHg 65%
    18:00 +27°C° 0 mm 2 mps 748 mmHg 68%
    19:00 +25°C° 0.1 mm 1 mps 748 mmHg 71%
    20:00 +24°C° 0.1 mm 1 mps 749 mmHg 74%
    21:00 +22°C° 0.1 mm 1 mps 749 mmHg 77%
    22:00 +22°C° 0 mm 1 mps 749 mmHg 78%
    23:00 +21°C° 0 mm 1 mps 749 mmHg 78%
    Show more